Year,Month,Day,Hour,Minute,Value (Times are PST for windspeed in km/hr)
2021,07,11,00,00,8.40
2021,07,11,00,01,11.30
2021,07,11,00,02,12.30
2021,07,11,00,03,10.40
2021,07,11,00,04,11.30
2021,07,11,00,05,12.60
2021,07,11,00,06,13.60
2021,07,11,00,07,9.60
2021,07,11,00,08,9.50
2021,07,11,00,09,11.30
2021,07,11,00,10,12.10
2021,07,11,00,11,12.20
2021,07,11,00,12,12.80
2021,07,11,00,13,10.50
2021,07,11,00,14,11.30
2021,07,11,00,15,8.90
2021,07,11,00,16,8.00
2021,07,11,00,17,8.00
2021,07,11,00,18,3.10
2021,07,11,00,19,10.30
2021,07,11,00,20,7.10
2021,07,11,00,21,5.10
2021,07,11,00,22,6.60
2021,07,11,00,23,8.60
2021,07,11,00,24,9.20
2021,07,11,00,25,10.20
2021,07,11,00,26,9.90
2021,07,11,00,27,9.70
2021,07,11,00,28,8.20
2021,07,11,00,29,7.60
2021,07,11,00,30,7.30
2021,07,11,00,31,2.50
2021,07,11,00,32,4.10
2021,07,11,00,33,1.20
2021,07,11,00,34,1.50
2021,07,11,00,35,6.80
2021,07,11,00,36,7.30
2021,07,11,00,37,7.20
2021,07,11,00,38,7.40
2021,07,11,00,39,7.40
2021,07,11,00,40,7.70
2021,07,11,00,41,7.90
2021,07,11,00,42,6.90
2021,07,11,00,43,7.60
2021,07,11,00,44,8.10
2021,07,11,00,45,8.50
2021,07,11,00,46,7.30
2021,07,11,00,47,7.90
2021,07,11,00,48,6.80
2021,07,11,00,49,8.10
2021,07,11,00,50,9.70
2021,07,11,00,51,8.80
2021,07,11,00,52,7.30
2021,07,11,00,53,6.10
2021,07,11,00,54,7.60
2021,07,11,00,55,6.00
2021,07,11,00,56,4.50
2021,07,11,00,57,4.00
2021,07,11,00,58,7.30
2021,07,11,00,59,5.30
2021,07,11,01,00,8.20
2021,07,11,01,01,6.80
2021,07,11,01,02,7.50
2021,07,11,01,03,8.10
2021,07,11,01,04,7.90
2021,07,11,01,05,7.60
2021,07,11,01,06,6.10
2021,07,11,01,07,7.80
2021,07,11,01,08,5.00
2021,07,11,01,09,6.70
2021,07,11,01,10,7.40
2021,07,11,01,11,6.80
2021,07,11,01,12,8.50
2021,07,11,01,13,8.80
2021,07,11,01,14,7.60
2021,07,11,01,15,9.00
2021,07,11,01,16,7.70
2021,07,11,01,17,7.10
2021,07,11,01,18,6.80
2021,07,11,01,19,9.00
2021,07,11,01,20,7.60
2021,07,11,01,21,7.20
2021,07,11,01,22,8.20
2021,07,11,01,23,7.50
2021,07,11,01,24,8.00
2021,07,11,01,25,8.70
2021,07,11,01,26,8.30
2021,07,11,01,27,8.60
2021,07,11,01,28,9.20
2021,07,11,01,29,9.90
2021,07,11,01,30,8.20
2021,07,11,01,31,9.10
2021,07,11,01,32,10.40
2021,07,11,01,33,8.80
2021,07,11,01,34,10.60
2021,07,11,01,35,9.70
2021,07,11,01,36,8.80
2021,07,11,01,37,8.30
2021,07,11,01,38,8.20
2021,07,11,01,39,7.40
2021,07,11,01,40,6.90
2021,07,11,01,41,7.60
2021,07,11,01,42,3.60
2021,07,11,01,43,1.70
2021,07,11,01,44,4.60
2021,07,11,01,45,7.20
2021,07,11,01,46,9.30
2021,07,11,01,47,4.30
2021,07,11,01,48,4.00
2021,07,11,01,49,1.40
2021,07,11,01,50,1.50
2021,07,11,01,51,2.70
2021,07,11,01,52,0.70
2021,07,11,01,53,2.00
2021,07,11,01,54,4.70
2021,07,11,01,55,2.50
2021,07,11,01,56,0.10
2021,07,11,01,57,1.70
2021,07,11,01,58,2.70
2021,07,11,01,59,6.80
2021,07,11,02,00,4.60
2021,07,11,02,01,6.00
2021,07,11,02,02,6.90
2021,07,11,02,03,6.10
2021,07,11,02,04,7.60
2021,07,11,02,05,7.10
2021,07,11,02,06,5.50
2021,07,11,02,07,2.90
2021,07,11,02,08,5.40
2021,07,11,02,09,5.90
2021,07,11,02,10,4.40
2021,07,11,02,11,6.80
2021,07,11,02,12,7.30
2021,07,11,02,13,7.30
2021,07,11,02,14,6.10
2021,07,11,02,15,6.40
2021,07,11,02,16,7.90
2021,07,11,02,17,6.40
2021,07,11,02,18,5.80
2021,07,11,02,19,4.10
2021,07,11,02,20,5.50
2021,07,11,02,21,5.10
2021,07,11,02,22,4.50
2021,07,11,02,23,3.20
2021,07,11,02,24,4.50
2021,07,11,02,25,4.60
2021,07,11,02,26,5.40
2021,07,11,02,27,4.30
2021,07,11,02,28,4.00
2021,07,11,02,29,4.80
2021,07,11,02,30,6.80
2021,07,11,02,31,6.70
2021,07,11,02,32,6.30
2021,07,11,02,33,7.40
2021,07,11,02,34,7.60
2021,07,11,02,35,7.50
2021,07,11,02,36,6.00
2021,07,11,02,37,4.90
2021,07,11,02,38,2.50
2021,07,11,02,39,4.10
2021,07,11,02,40,7.30
2021,07,11,02,41,7.60
2021,07,11,02,42,8.10
2021,07,11,02,43,7.60
2021,07,11,02,44,7.70
2021,07,11,02,45,6.50
2021,07,11,02,46,6.90
2021,07,11,02,47,5.60
2021,07,11,02,48,6.30
2021,07,11,02,49,7.30
2021,07,11,02,50,7.30
2021,07,11,02,51,7.30
2021,07,11,02,52,7.70
2021,07,11,02,53,7.80
2021,07,11,02,54,6.60
2021,07,11,02,55,4.50
2021,07,11,02,56,3.10
2021,07,11,02,57,6.90
2021,07,11,02,58,6.20
2021,07,11,02,59,6.50
2021,07,11,03,00,6.40
2021,07,11,03,01,6.40
2021,07,11,03,02,3.90
2021,07,11,03,03,3.40
2021,07,11,03,04,2.50
2021,07,11,03,05,4.10
2021,07,11,03,06,6.00
2021,07,11,03,07,6.60
2021,07,11,03,08,6.60
2021,07,11,03,09,7.10
2021,07,11,03,10,5.20
2021,07,11,03,11,4.70
2021,07,11,03,12,4.50
2021,07,11,03,13,1.90
2021,07,11,03,14,2.50
2021,07,11,03,15,2.50
2021,07,11,03,16,3.90
2021,07,11,03,17,3.60
2021,07,11,03,18,5.40
2021,07,11,03,19,4.20
2021,07,11,03,20,3.80
2021,07,11,03,21,4.50
2021,07,11,03,22,2.80
2021,07,11,03,23,2.00
2021,07,11,03,24,2.00
2021,07,11,03,25,3.10
2021,07,11,03,26,5.00
2021,07,11,03,27,7.30
2021,07,11,03,28,6.40
2021,07,11,03,29,6.20
2021,07,11,03,30,5.60
2021,07,11,03,31,7.40
2021,07,11,03,32,8.10
2021,07,11,03,33,7.80
2021,07,11,03,34,6.90
2021,07,11,03,35,7.00
2021,07,11,03,36,5.70
2021,07,11,03,37,3.80
2021,07,11,03,38,2.10
2021,07,11,03,39,0.10
2021,07,11,03,40,0.70
2021,07,11,03,41,0.60
2021,07,11,03,42,0.00
2021,07,11,03,43,2.80
2021,07,11,03,44,6.60
2021,07,11,03,45,5.60
2021,07,11,03,46,5.00
2021,07,11,03,47,3.80
2021,07,11,03,48,1.70
2021,07,11,03,49,1.10
2021,07,11,03,50,0.70
2021,07,11,03,51,1.40
2021,07,11,03,52,2.20
2021,07,11,03,53,0.90
2021,07,11,03,54,0.00
2021,07,11,03,55,0.00
2021,07,11,03,56,0.10
2021,07,11,03,57,0.00
2021,07,11,03,58,0.00
2021,07,11,03,59,0.00
2021,07,11,04,00,0.60
2021,07,11,04,01,0.20
2021,07,11,04,02,0.10
2021,07,11,04,03,0.00
2021,07,11,04,04,0.00
2021,07,11,04,05,0.00
2021,07,11,04,06,0.00
2021,07,11,04,07,0.00
2021,07,11,04,08,0.00
2021,07,11,04,09,0.30
2021,07,11,04,10,0.70
2021,07,11,04,11,0.70
2021,07,11,04,12,0.00
2021,07,11,04,13,0.10
2021,07,11,04,14,0.10
2021,07,11,04,15,0.00
2021,07,11,04,16,0.80
2021,07,11,04,17,0.10
2021,07,11,04,18,0.00
2021,07,11,04,19,0.00
2021,07,11,04,20,0.10
2021,07,11,04,21,0.00
2021,07,11,04,22,0.00
2021,07,11,04,23,0.00
2021,07,11,04,24,0.00
2021,07,11,04,25,0.00
2021,07,11,04,26,0.00
2021,07,11,04,27,0.00
2021,07,11,04,28,0.00
2021,07,11,04,29,0.00
2021,07,11,04,30,0.00
2021,07,11,04,31,0.40
2021,07,11,04,32,0.00
2021,07,11,04,33,0.10
2021,07,11,04,34,0.00
2021,07,11,04,35,0.00
2021,07,11,04,36,0.00
2021,07,11,04,37,0.00
2021,07,11,04,38,0.20
2021,07,11,04,39,0.20
2021,07,11,04,40,0.00
2021,07,11,04,41,0.00
2021,07,11,04,42,0.00
2021,07,11,04,43,0.00
2021,07,11,04,44,0.00
2021,07,11,04,45,0.00
2021,07,11,04,46,0.00
2021,07,11,04,47,0.00
2021,07,11,04,48,0.00
2021,07,11,04,49,0.70
2021,07,11,04,50,0.70
2021,07,11,04,51,0.00
2021,07,11,04,52,0.00
2021,07,11,04,53,0.00
2021,07,11,04,54,0.00
2021,07,11,04,55,0.00
2021,07,11,04,56,0.00
2021,07,11,04,57,0.00
2021,07,11,04,58,0.00
2021,07,11,04,59,0.00
2021,07,11,05,00,0.00
2021,07,11,05,01,0.00
2021,07,11,05,02,0.00
2021,07,11,05,03,0.00
2021,07,11,05,04,0.00
2021,07,11,05,05,0.00
2021,07,11,05,06,0.00
2021,07,11,05,07,0.00
2021,07,11,05,08,0.00
2021,07,11,05,09,1.70
2021,07,11,05,10,0.40
2021,07,11,05,11,0.00
2021,07,11,05,12,0.40
2021,07,11,05,13,0.20
2021,07,11,05,14,0.20
2021,07,11,05,15,0.00
2021,07,11,05,16,0.00
2021,07,11,05,17,0.00
2021,07,11,05,18,0.90
2021,07,11,05,19,3.00
2021,07,11,05,20,4.90
2021,07,11,05,21,3.80
2021,07,11,05,22,3.00
2021,07,11,05,23,3.10
2021,07,11,05,24,2.80
2021,07,11,05,25,3.80
2021,07,11,05,26,5.90
2021,07,11,05,27,3.50
2021,07,11,05,28,3.40
2021,07,11,05,29,3.00
2021,07,11,05,30,1.10
2021,07,11,05,31,1.40
2021,07,11,05,32,3.70
2021,07,11,05,33,0.70
2021,07,11,05,34,3.30
2021,07,11,05,35,1.70
2021,07,11,05,36,0.40
2021,07,11,05,37,1.70
2021,07,11,05,38,2.20
2021,07,11,05,39,1.90
2021,07,11,05,40,0.10
2021,07,11,05,41,0.00
2021,07,11,05,42,0.00
2021,07,11,05,43,0.00
2021,07,11,05,44,0.50
2021,07,11,05,45,0.00
2021,07,11,05,46,0.00
2021,07,11,05,47,0.00
2021,07,11,05,48,0.00
2021,07,11,05,49,0.00
2021,07,11,05,50,0.00
2021,07,11,05,51,0.00
2021,07,11,05,52,0.00
2021,07,11,05,53,0.00
2021,07,11,05,54,0.00
2021,07,11,05,55,0.00
2021,07,11,05,56,0.00
2021,07,11,05,57,0.00
2021,07,11,05,58,0.00
2021,07,11,05,59,0.00
2021,07,11,06,00,0.00
2021,07,11,06,01,0.00
2021,07,11,06,02,0.00
2021,07,11,06,03,0.00
2021,07,11,06,04,0.00
2021,07,11,06,05,0.00
2021,07,11,06,06,0.30
2021,07,11,06,07,0.10
2021,07,11,06,08,0.20
2021,07,11,06,09,0.60
2021,07,11,06,10,2.80
2021,07,11,06,11,0.60
2021,07,11,06,12,1.00
2021,07,11,06,13,0.20
2021,07,11,06,14,1.40
2021,07,11,06,15,0.80
2021,07,11,06,16,2.40
2021,07,11,06,17,3.60
2021,07,11,06,18,2.00
2021,07,11,06,19,3.70
2021,07,11,06,20,2.20
2021,07,11,06,21,0.00
2021,07,11,06,22,0.00
2021,07,11,06,23,0.10
2021,07,11,06,24,0.00
2021,07,11,06,25,0.30
2021,07,11,06,26,0.00
2021,07,11,06,27,0.70
2021,07,11,06,28,1.10
2021,07,11,06,29,1.10
2021,07,11,06,30,0.10
2021,07,11,06,31,0.20
2021,07,11,06,32,0.00
2021,07,11,06,33,0.00
2021,07,11,06,34,0.00
2021,07,11,06,35,0.20
2021,07,11,06,36,0.10
2021,07,11,06,37,0.00
2021,07,11,06,38,0.00
2021,07,11,06,39,0.00
2021,07,11,06,40,0.00
2021,07,11,06,41,0.00
2021,07,11,06,42,0.00
2021,07,11,06,43,0.00
2021,07,11,06,44,0.00
2021,07,11,06,45,0.00
2021,07,11,06,46,0.00
2021,07,11,06,47,0.00
2021,07,11,06,48,0.00
2021,07,11,06,49,0.00
2021,07,11,06,50,0.00
2021,07,11,06,51,0.00
2021,07,11,06,52,0.00
2021,07,11,06,53,0.00
2021,07,11,06,54,0.00
2021,07,11,06,55,0.00
2021,07,11,06,56,0.00
2021,07,11,06,57,0.00
2021,07,11,06,58,0.00
2021,07,11,06,59,0.00
2021,07,11,07,00,0.00
2021,07,11,07,01,0.00
2021,07,11,07,02,0.00
2021,07,11,07,03,0.00
2021,07,11,07,04,0.00
2021,07,11,07,05,0.00
2021,07,11,07,06,0.40
2021,07,11,07,07,1.90
2021,07,11,07,08,0.50
2021,07,11,07,09,0.00
2021,07,11,07,10,0.00
2021,07,11,07,11,0.00
2021,07,11,07,12,0.00
2021,07,11,07,13,0.00
2021,07,11,07,14,0.00
2021,07,11,07,15,0.00
2021,07,11,07,16,0.00
2021,07,11,07,17,0.00
2021,07,11,07,18,0.00
2021,07,11,07,19,0.00
2021,07,11,07,20,0.00
2021,07,11,07,21,0.00
2021,07,11,07,22,0.00
2021,07,11,07,23,0.00
2021,07,11,07,24,0.00
2021,07,11,07,25,0.00
2021,07,11,07,26,0.00
2021,07,11,07,27,0.00
2021,07,11,07,28,0.00
2021,07,11,07,29,0.00
2021,07,11,07,30,0.00
2021,07,11,07,31,0.00
2021,07,11,07,32,0.00
2021,07,11,07,33,0.00
2021,07,11,07,34,0.00
2021,07,11,07,35,0.00
2021,07,11,07,36,0.00
2021,07,11,07,37,0.00
2021,07,11,07,38,0.00
2021,07,11,07,39,0.00
2021,07,11,07,40,0.00
2021,07,11,07,41,0.00
2021,07,11,07,42,0.00
2021,07,11,07,43,0.00
2021,07,11,07,44,0.00
2021,07,11,07,45,0.00
2021,07,11,07,46,0.00
2021,07,11,07,47,0.00
2021,07,11,07,48,0.00
2021,07,11,07,49,0.00
2021,07,11,07,50,0.00
2021,07,11,07,51,0.00
2021,07,11,07,52,0.00
2021,07,11,07,53,0.00
2021,07,11,07,54,3.00
2021,07,11,07,55,5.00
2021,07,11,07,56,6.50
2021,07,11,07,57,5.30
2021,07,11,07,58,7.30
2021,07,11,07,59,7.90
2021,07,11,08,00,6.60
2021,07,11,08,01,4.80
2021,07,11,08,02,7.60
2021,07,11,08,03,7.80
2021,07,11,08,04,5.00
2021,07,11,08,05,6.80
2021,07,11,08,06,2.80
2021,07,11,08,07,5.90
2021,07,11,08,08,1.90
2021,07,11,08,09,3.80
2021,07,11,08,10,4.30
2021,07,11,08,11,0.60
2021,07,11,08,12,2.00
2021,07,11,08,13,2.00
2021,07,11,08,14,1.80
2021,07,11,08,15,3.20
2021,07,11,08,16,4.30
2021,07,11,08,17,3.80
2021,07,11,08,18,3.50
2021,07,11,08,19,2.30
2021,07,11,08,20,3.80
2021,07,11,08,21,4.00
2021,07,11,08,22,3.60
2021,07,11,08,23,3.00
2021,07,11,08,24,3.90
2021,07,11,08,25,0.20
2021,07,11,08,26,0.40
2021,07,11,08,27,1.00
2021,07,11,08,28,3.80
2021,07,11,08,29,3.00
2021,07,11,08,30,5.90
2021,07,11,08,31,1.80
2021,07,11,08,32,0.20
2021,07,11,08,33,3.00
2021,07,11,08,34,5.10
2021,07,11,08,35,5.30
2021,07,11,08,36,5.10
2021,07,11,08,37,4.90
2021,07,11,08,38,2.00
2021,07,11,08,39,2.00
2021,07,11,08,40,3.30
2021,07,11,08,41,3.00
2021,07,11,08,42,4.80
2021,07,11,08,43,5.20
2021,07,11,08,44,3.80
2021,07,11,08,45,4.90
2021,07,11,08,46,5.70
2021,07,11,08,47,5.40
2021,07,11,08,48,4.60
2021,07,11,08,49,6.60
2021,07,11,08,50,7.80
2021,07,11,08,51,8.10
2021,07,11,08,52,6.10
2021,07,11,08,53,5.00
2021,07,11,08,54,7.10
2021,07,11,08,55,3.80
2021,07,11,08,56,1.70
2021,07,11,08,57,0.50
2021,07,11,08,58,0.00
2021,07,11,08,59,0.00
2021,07,11,09,00,0.10
2021,07,11,09,01,0.00
2021,07,11,09,02,0.00
2021,07,11,09,03,0.00
2021,07,11,09,04,0.00
2021,07,11,09,05,5.90
2021,07,11,09,06,7.80
2021,07,11,09,07,6.70
2021,07,11,09,08,3.70
2021,07,11,09,09,3.20
2021,07,11,09,10,2.60
2021,07,11,09,11,1.20
2021,07,11,09,12,0.00
2021,07,11,09,13,0.00
2021,07,11,09,14,0.00
2021,07,11,09,15,0.00
2021,07,11,09,16,0.00
2021,07,11,09,17,0.00
2021,07,11,09,18,0.00
2021,07,11,09,19,0.00
2021,07,11,09,20,0.10
2021,07,11,09,21,0.00
2021,07,11,09,22,0.00
2021,07,11,09,23,0.00
2021,07,11,09,24,0.00
2021,07,11,09,25,0.00
2021,07,11,09,26,0.00
2021,07,11,09,27,0.00
2021,07,11,09,28,0.00
2021,07,11,09,29,0.00
2021,07,11,09,30,5.40
2021,07,11,09,31,5.80
2021,07,11,09,32,5.30
2021,07,11,09,33,6.00
2021,07,11,09,34,3.30
2021,07,11,09,35,3.50
2021,07,11,09,36,4.90
2021,07,11,09,37,6.30
2021,07,11,09,38,8.60
2021,07,11,09,39,6.10
2021,07,11,09,40,5.00
2021,07,11,09,41,6.40
2021,07,11,09,42,9.30
2021,07,11,09,43,8.50
2021,07,11,09,44,9.40
2021,07,11,09,45,9.70
2021,07,11,09,46,9.60
2021,07,11,09,47,8.30
2021,07,11,09,48,6.90
2021,07,11,09,49,9.70
2021,07,11,09,50,9.50
2021,07,11,09,51,8.40
2021,07,11,09,52,7.10
2021,07,11,09,53,10.60
2021,07,11,09,54,9.50
2021,07,11,09,55,9.40
2021,07,11,09,56,7.60
2021,07,11,09,57,9.50
2021,07,11,09,58,9.50
2021,07,11,09,59,9.80
2021,07,11,10,00,9.60
2021,07,11,10,01,10.80
2021,07,11,10,02,12.20
2021,07,11,10,03,9.20
2021,07,11,10,04,8.40
2021,07,11,10,05,8.60
2021,07,11,10,06,10.00
2021,07,11,10,07,9.30
2021,07,11,10,08,9.60
2021,07,11,10,09,7.90
2021,07,11,10,10,8.40
2021,07,11,10,11,8.80
2021,07,11,10,12,8.30
2021,07,11,10,13,8.90
2021,07,11,10,14,8.40
2021,07,11,10,15,8.00
2021,07,11,10,16,7.50
2021,07,11,10,17,7.40
2021,07,11,10,18,7.80
2021,07,11,10,19,7.90
2021,07,11,10,20,6.00
2021,07,11,10,21,7.20
2021,07,11,10,22,9.70
2021,07,11,10,23,8.80
2021,07,11,10,24,8.20
2021,07,11,10,25,2.80
2021,07,11,10,26,7.20
2021,07,11,10,27,6.50
2021,07,11,10,28,10.00
2021,07,11,10,29,10.80
2021,07,11,10,30,10.00
2021,07,11,10,31,9.40
2021,07,11,10,32,9.90
2021,07,11,10,33,14.10
2021,07,11,10,34,12.10
2021,07,11,10,35,11.70
2021,07,11,10,36,10.10
2021,07,11,10,37,9.20
2021,07,11,10,38,11.00
2021,07,11,10,39,9.70
2021,07,11,10,40,9.80
2021,07,11,10,41,9.70
2021,07,11,10,42,9.70
2021,07,11,10,43,9.50
2021,07,11,10,44,10.80
2021,07,11,10,45,12.40
2021,07,11,10,46,11.80
2021,07,11,10,47,9.80
2021,07,11,10,48,11.10
2021,07,11,10,49,9.00
2021,07,11,10,50,11.00
2021,07,11,10,51,10.10
2021,07,11,10,52,10.30
2021,07,11,10,53,8.70
2021,07,11,10,54,6.40
2021,07,11,10,55,5.40
2021,07,11,10,56,10.20
2021,07,11,10,57,9.40
2021,07,11,10,58,8.10
2021,07,11,10,59,8.50
2021,07,11,11,00,5.90
2021,07,11,11,01,9.30
2021,07,11,11,02,6.70
2021,07,11,11,03,8.90
2021,07,11,11,04,8.50
2021,07,11,11,05,10.10
2021,07,11,11,06,11.00
2021,07,11,11,07,11.60
2021,07,11,11,08,11.60
2021,07,11,11,09,9.20
2021,07,11,11,10,9.20
2021,07,11,11,11,9.50
2021,07,11,11,12,9.70
2021,07,11,11,13,8.30
2021,07,11,11,14,8.50
2021,07,11,11,15,10.00
2021,07,11,11,16,11.20
2021,07,11,11,17,9.80
2021,07,11,11,18,9.70
2021,07,11,11,19,11.50
2021,07,11,11,20,8.90
2021,07,11,11,21,8.10
2021,07,11,11,22,10.00
2021,07,11,11,23,9.90
2021,07,11,11,24,8.70
2021,07,11,11,25,10.60
2021,07,11,11,26,10.10
2021,07,11,11,27,8.70
2021,07,11,11,28,10.90
2021,07,11,11,29,9.00
2021,07,11,11,30,13.60
2021,07,11,11,31,13.70
2021,07,11,11,32,12.70
2021,07,11,11,33,12.50
2021,07,11,11,34,12.00
2021,07,11,11,35,11.00
2021,07,11,11,36,10.90
2021,07,11,11,37,11.70
2021,07,11,11,38,12.80
2021,07,11,11,39,12.30
2021,07,11,11,40,13.40
2021,07,11,11,41,10.80
2021,07,11,11,42,9.50
2021,07,11,11,43,9.20
2021,07,11,11,44,12.30
2021,07,11,11,45,12.20
2021,07,11,11,46,12.60
2021,07,11,11,47,12.00
2021,07,11,11,48,9.70
2021,07,11,11,49,11.80
2021,07,11,11,50,13.00
2021,07,11,11,51,12.80
2021,07,11,11,52,12.80
2021,07,11,11,53,12.30
2021,07,11,11,54,13.90
2021,07,11,11,55,13.90
2021,07,11,11,56,14.20
2021,07,11,11,57,13.90
2021,07,11,11,58,14.50
2021,07,11,11,59,15.00
2021,07,11,12,00,15.40
2021,07,11,12,01,15.20
2021,07,11,12,02,14.30
2021,07,11,12,03,12.40
2021,07,11,12,04,12.10
2021,07,11,12,05,10.60
2021,07,11,12,06,11.60
2021,07,11,12,07,12.50
2021,07,11,12,08,11.10
2021,07,11,12,09,15.10
2021,07,11,12,10,14.80
2021,07,11,12,11,15.40
2021,07,11,12,12,14.40
2021,07,11,12,13,16.10
2021,07,11,12,14,14.90
2021,07,11,12,15,15.80
2021,07,11,12,16,13.50
2021,07,11,12,17,12.90
2021,07,11,12,18,13.10
2021,07,11,12,19,13.40
2021,07,11,12,20,15.20
2021,07,11,12,21,15.60
2021,07,11,12,22,12.30
2021,07,11,12,23,12.20
2021,07,11,12,24,14.30
2021,07,11,12,25,14.60
2021,07,11,12,26,14.90
2021,07,11,12,27,13.70
2021,07,11,12,28,13.10
2021,07,11,12,29,12.80
2021,07,11,12,30,13.30
2021,07,11,12,31,16.60
2021,07,11,12,32,14.60
2021,07,11,12,33,14.40
2021,07,11,12,34,19.10
2021,07,11,12,35,17.30
2021,07,11,12,36,15.10
2021,07,11,12,37,15.10
2021,07,11,12,38,17.60
2021,07,11,12,39,18.00
2021,07,11,12,40,19.10
2021,07,11,12,41,17.60
2021,07,11,12,42,18.10
2021,07,11,12,43,15.00
2021,07,11,12,44,15.50
2021,07,11,12,45,15.70
2021,07,11,12,46,18.50
2021,07,11,12,47,15.80
2021,07,11,12,48,16.50
2021,07,11,12,49,15.40
2021,07,11,12,50,16.10
2021,07,11,12,51,13.60
2021,07,11,12,52,16.90
2021,07,11,12,53,16.30
2021,07,11,12,54,13.70
2021,07,11,12,55,13.80
2021,07,11,12,56,17.10
2021,07,11,12,57,16.90
2021,07,11,12,58,14.60
2021,07,11,12,59,16.20
2021,07,11,13,00,15.00
2021,07,11,13,01,17.90
2021,07,11,13,02,15.70
2021,07,11,13,03,14.00
2021,07,11,13,04,13.90
2021,07,11,13,05,14.10
2021,07,11,13,06,14.20
2021,07,11,13,07,14.20
2021,07,11,13,08,14.20
2021,07,11,13,09,13.60
2021,07,11,13,10,15.70
2021,07,11,13,11,16.30
2021,07,11,13,12,14.70
2021,07,11,13,13,16.70
2021,07,11,13,14,19.20
2021,07,11,13,15,16.60
2021,07,11,13,16,17.60
2021,07,11,13,17,17.40
2021,07,11,13,18,16.60
2021,07,11,13,19,16.50
2021,07,11,13,20,15.00
2021,07,11,13,21,16.10
2021,07,11,13,22,15.90
2021,07,11,13,23,15.90
2021,07,11,13,24,16.20
2021,07,11,13,25,16.20
2021,07,11,13,26,16.60
2021,07,11,13,27,18.00
2021,07,11,13,28,17.00
2021,07,11,13,29,16.80
2021,07,11,13,30,17.00
2021,07,11,13,31,15.20
2021,07,11,13,32,17.10
2021,07,11,13,33,16.20
2021,07,11,13,34,17.20
2021,07,11,13,35,16.20
2021,07,11,13,36,15.80
2021,07,11,13,37,16.40
2021,07,11,13,38,18.10
2021,07,11,13,39,16.40
2021,07,11,13,40,17.00
2021,07,11,13,41,16.10
2021,07,11,13,42,15.90
2021,07,11,13,43,14.80
2021,07,11,13,44,16.40
2021,07,11,13,45,16.40
2021,07,11,13,46,16.20
2021,07,11,13,47,16.10
2021,07,11,13,48,15.60
2021,07,11,13,49,14.80
2021,07,11,13,50,15.80
2021,07,11,13,51,16.70
2021,07,11,13,52,17.10
2021,07,11,13,53,15.60
2021,07,11,13,54,15.30
2021,07,11,13,55,15.50
2021,07,11,13,56,16.40
2021,07,11,13,57,16.80
2021,07,11,13,58,17.70
2021,07,11,13,59,19.60
2021,07,11,14,00,19.70
2021,07,11,14,01,19.00
2021,07,11,14,02,17.90
2021,07,11,14,03,19.50
2021,07,11,14,04,18.80
2021,07,11,14,05,19.20
2021,07,11,14,06,17.60
2021,07,11,14,07,18.50
2021,07,11,14,08,19.60
2021,07,11,14,09,19.50
2021,07,11,14,10,17.40
2021,07,11,14,11,18.40
2021,07,11,14,12,17.60
2021,07,11,14,13,19.10
2021,07,11,14,14,18.80
2021,07,11,14,15,18.80
2021,07,11,14,16,19.10
2021,07,11,14,17,17.60
2021,07,11,14,18,16.60
2021,07,11,14,19,17.90
2021,07,11,14,20,16.80
2021,07,11,14,21,18.20
2021,07,11,14,22,16.50
2021,07,11,14,23,16.70
2021,07,11,14,24,15.70
2021,07,11,14,25,18.30
2021,07,11,14,26,16.10
2021,07,11,14,27,16.80
2021,07,11,14,28,16.70
2021,07,11,14,29,17.30
2021,07,11,14,30,18.30
2021,07,11,14,31,18.90
2021,07,11,14,32,20.10
2021,07,11,14,33,23.20
2021,07,11,14,34,24.00
2021,07,11,14,35,23.00
2021,07,11,14,36,24.70
2021,07,11,14,37,23.90
2021,07,11,14,38,21.90
2021,07,11,14,39,20.70
2021,07,11,14,40,21.40
2021,07,11,14,41,20.10
2021,07,11,14,42,19.00
2021,07,11,14,43,19.20
2021,07,11,14,44,18.80
2021,07,11,14,45,18.20
2021,07,11,14,46,20.40
2021,07,11,14,47,21.10
2021,07,11,14,48,20.10
2021,07,11,14,49,16.50
2021,07,11,14,50,18.30
2021,07,11,14,51,17.60
2021,07,11,14,52,16.80
2021,07,11,14,53,17.60
2021,07,11,14,54,16.90
2021,07,11,14,55,17.90
2021,07,11,14,56,16.80
2021,07,11,14,57,17.00
2021,07,11,14,58,17.80
2021,07,11,14,59,16.50
2021,07,11,15,00,18.10
2021,07,11,15,01,17.80
2021,07,11,15,02,19.10
2021,07,11,15,03,19.60
2021,07,11,15,04,19.20
2021,07,11,15,05,21.00
2021,07,11,15,06,19.00
2021,07,11,15,07,17.80
2021,07,11,15,08,20.00
2021,07,11,15,09,18.80
2021,07,11,15,10,17.30
2021,07,11,15,11,17.10
2021,07,11,15,12,16.90
2021,07,11,15,13,18.20
2021,07,11,15,14,17.60
2021,07,11,15,15,17.90
2021,07,11,15,16,18.50
2021,07,11,15,17,16.80
2021,07,11,15,18,18.90
2021,07,11,15,19,20.10
2021,07,11,15,20,18.40
2021,07,11,15,21,17.60
2021,07,11,15,22,20.40
2021,07,11,15,23,18.00
2021,07,11,15,24,21.30
2021,07,11,15,25,20.90
2021,07,11,15,26,18.30
2021,07,11,15,27,21.70
2021,07,11,15,28,21.90
2021,07,11,15,29,17.60
2021,07,11,15,30,14.70
2021,07,11,15,31,14.40
2021,07,11,15,32,12.80
2021,07,11,15,33,12.40
2021,07,11,15,34,13.00
2021,07,11,15,35,13.00
2021,07,11,15,36,12.50
2021,07,11,15,37,12.60
2021,07,11,15,38,11.90
2021,07,11,15,39,12.30
2021,07,11,15,40,11.50
2021,07,11,15,41,12.50
2021,07,11,15,42,11.80
2021,07,11,15,43,9.70
2021,07,11,15,44,11.80
2021,07,11,15,45,9.90
2021,07,11,15,46,11.30
2021,07,11,15,47,12.20
2021,07,11,15,48,14.60
2021,07,11,15,49,12.90
2021,07,11,15,50,12.60
2021,07,11,15,51,14.20
2021,07,11,15,52,16.00
2021,07,11,15,53,16.50
2021,07,11,15,54,15.30
2021,07,11,15,55,13.40
2021,07,11,15,56,14.30
2021,07,11,15,57,14.40
2021,07,11,15,58,13.10
2021,07,11,15,59,11.30
2021,07,11,16,00,10.60
2021,07,11,16,01,12.40
2021,07,11,16,02,12.60
2021,07,11,16,03,12.10
2021,07,11,16,04,11.60
2021,07,11,16,05,12.20
2021,07,11,16,06,13.20
2021,07,11,16,07,12.30
2021,07,11,16,08,12.50
2021,07,11,16,09,13.80
2021,07,11,16,10,13.60
2021,07,11,16,11,14.20
2021,07,11,16,12,13.50
2021,07,11,16,13,12.10
2021,07,11,16,14,13.40
2021,07,11,16,15,12.00
2021,07,11,16,16,12.50
2021,07,11,16,17,11.80
2021,07,11,16,18,12.10
2021,07,11,16,19,11.30
2021,07,11,16,20,11.10
2021,07,11,16,21,11.00
2021,07,11,16,22,13.00
2021,07,11,16,23,12.30
2021,07,11,16,24,13.60
2021,07,11,16,25,11.50
2021,07,11,16,26,11.10
2021,07,11,16,27,11.30
2021,07,11,16,28,10.80
2021,07,11,16,29,11.60
2021,07,11,16,30,11.10
2021,07,11,16,31,12.10
2021,07,11,16,32,12.80
2021,07,11,16,33,11.30
2021,07,11,16,34,10.90
2021,07,11,16,35,12.30
2021,07,11,16,36,11.10
2021,07,11,16,37,11.60
2021,07,11,16,38,12.10
2021,07,11,16,39,10.80
2021,07,11,16,40,15.00
2021,07,11,16,41,13.60
2021,07,11,16,42,13.80
2021,07,11,16,43,12.00
2021,07,11,16,44,11.30
2021,07,11,16,45,12.00
2021,07,11,16,46,14.60
2021,07,11,16,47,15.80
2021,07,11,16,48,13.40
2021,07,11,16,49,11.10
2021,07,11,16,50,10.30
2021,07,11,16,51,13.90
2021,07,11,16,52,12.10
2021,07,11,16,53,10.20
2021,07,11,16,54,11.60
2021,07,11,16,55,12.40
2021,07,11,16,56,15.00
2021,07,11,16,57,11.50
2021,07,11,16,58,10.40
2021,07,11,16,59,13.40
2021,07,11,17,00,10.00
2021,07,11,17,01,16.00
2021,07,11,17,02,14.30
2021,07,11,17,03,13.30
2021,07,11,17,04,14.00
2021,07,11,17,05,15.00
2021,07,11,17,06,14.90
2021,07,11,17,07,16.50
2021,07,11,17,08,15.50
2021,07,11,17,09,14.50
2021,07,11,17,10,14.50
2021,07,11,17,11,15.20
2021,07,11,17,12,15.50
2021,07,11,17,13,15.30
2021,07,11,17,14,18.00
2021,07,11,17,15,17.30
2021,07,11,17,16,18.30
2021,07,11,17,17,14.50
2021,07,11,17,18,14.20
2021,07,11,17,19,12.60
2021,07,11,17,20,12.70
2021,07,11,17,21,13.30
2021,07,11,17,22,12.20
2021,07,11,17,23,12.80
2021,07,11,17,24,12.20
2021,07,11,17,25,13.70
2021,07,11,17,26,13.90
2021,07,11,17,27,13.20
2021,07,11,17,28,12.10
2021,07,11,17,29,12.10
2021,07,11,17,30,14.50
2021,07,11,17,31,12.90
2021,07,11,17,32,12.90
2021,07,11,17,33,14.70
2021,07,11,17,34,14.10
2021,07,11,17,35,14.90
2021,07,11,17,36,13.60
2021,07,11,17,37,15.50
2021,07,11,17,38,13.70
2021,07,11,17,39,14.10
2021,07,11,17,40,13.10
2021,07,11,17,41,12.70
2021,07,11,17,42,13.00
2021,07,11,17,43,12.90
2021,07,11,17,44,12.30
2021,07,11,17,45,11.70
2021,07,11,17,46,12.40
2021,07,11,17,47,12.20